Ponca City, OK

11:48 PM CDT on July 25, 2017 (GMT -0500)
Ponca City Municipal

Weather History for KPNC - September, 2013

Change the Weather History Date:

Sunday, September 22, 2013

  Actual Average Record
Temperature  
Mean Temperature 66 °F -  
Max Temperature 80 °F 81 °F 98 °F (1956)
Min Temperature 51 °F 56 °F 41 °F (1951)
Growing Degree Days 16 (Base 50)    
Moisture  
Dew Point 49 °F    
Average Humidity 58    
Maximum Humidity 89    
Minimum Humidity 30    
Precipitation  
Precipitation 0.00 in - - ()
Sea Level Pressure  
Sea Level Pressure 29.88 in    
Wind  
Wind Speed 6 mph (SE)    
Max Wind Speed 13 mph    
Max Gust Speed 20 mph    
Visibility 10 miles    
Events      
Averages and records for this station are not official NWS values.
T = Trace of Precipitation, MM = Missing Value Source: NWS Daily Summary

Daily Weather History Graph

Daily Weather History Graph

Search for Another Location

Airport or City:

Trip Planner

Search our weather history database for the weather conditions in past years. The results will help you decide how hot, cold, wet, or windy it might be!

Date:

Astronomy

Sep. 22, 2013 Rise Set
Actual Time 7:16 AM CDT 7:24 PM CDT
Civil Twilight 6:50 AM CDT 7:50 PM CDT
Nautical Twilight 6:20 AM CDT 8:20 PM CDT
Astronomical Twilight 5:49 AM CDT 8:51 PM CDT
Moon 9:22 PM CDT (9/22) 10:31 AM CDT (9/22)
Length of Visible Light 12h 59m
Length of Day
12h 08m
Waning Gibbous, 88% of the Moon is Illuminated
Sep 22
Waning Gibbous
Sep 26
Last Quarter
Oct 4
New
Oct 11
First Quarter
Oct 18
Full

Hourly Weather History & Observations

Time (CDT) Temp. Dew Point Humidity Pressure Visibility Wind Dir Wind Speed Gust Speed Precip Events Conditions
12:53 AM 62.1 °F 53.1 °F 72% 29.92 in 10.0 mi SSE 3.5 mph - N/A   Clear
1:53 AM 60.1 °F 52.0 °F 75% 29.92 in 10.0 mi SSE 3.5 mph - N/A   Clear
2:53 AM 57.0 °F 52.0 °F 83% 29.91 in 10.0 mi Calm Calm - N/A   Clear
3:53 AM 54.0 °F 50.0 °F 86% 29.90 in 10.0 mi Calm Calm - N/A   Clear
4:53 AM 53.1 °F 50.0 °F 89% 29.90 in 10.0 mi Calm Calm - N/A   Clear
5:53 AM 51.1 °F 48.0 °F 89% 29.91 in 10.0 mi Calm Calm - N/A   Clear
6:53 AM 54.0 °F 50.0 °F 86% 29.91 in 10.0 mi SE 8.1 mph - N/A   Clear
7:53 AM 55.0 °F 51.1 °F 86% 29.94 in 10.0 mi SE 5.8 mph - N/A   Clear
8:53 AM 62.1 °F 53.1 °F 72% 29.94 in 10.0 mi SSE 6.9 mph - N/A   Clear
9:53 AM 68.0 °F 52.0 °F 56% 29.95 in 10.0 mi SSE 8.1 mph - N/A   Clear
10:53 AM 72.0 °F 50.0 °F 46% 29.95 in 10.0 mi SSE 11.5 mph - N/A   Clear
11:53 AM 73.9 °F 48.0 °F 40% 29.94 in 10.0 mi SSE 9.2 mph - N/A   Clear
12:53 PM 77.0 °F 46.0 °F 33% 29.91 in 10.0 mi SE 12.7 mph - N/A   Clear
1:53 PM 78.1 °F 44.1 °F 30% 29.89 in 10.0 mi South 9.2 mph - N/A   Clear
2:53 PM 77.0 °F 45.0 °F 32% 29.85 in 10.0 mi SE 11.5 mph 19.6 mph N/A   Clear
3:53 PM 80.1 °F 46.0 °F 30% 29.83 in 10.0 mi SE 9.2 mph 17.3 mph N/A   Clear
4:53 PM 79.0 °F 46.0 °F 31% 29.81 in 10.0 mi SE 8.1 mph 16.1 mph N/A   Clear
5:53 PM 78.1 °F 46.0 °F 32% 29.80 in 10.0 mi ESE 10.4 mph - N/A   Clear
6:53 PM 75.0 °F 48.9 °F 40% 29.80 in 10.0 mi ESE 8.1 mph - N/A   Clear
7:53 PM 69.1 °F 51.1 °F 53% 29.80 in 10.0 mi SE 8.1 mph - N/A   Clear
8:53 PM 64.0 °F 51.1 °F 63% 29.81 in 10.0 mi SE 8.1 mph - N/A   Clear
9:53 PM 66.0 °F 48.9 °F 54% 29.81 in 10.0 mi SE 10.4 mph - N/A   Clear
10:53 PM 64.0 °F 48.0 °F 56% 29.81 in 10.0 mi SE 9.2 mph - N/A   Clear
11:53 PM 64.0 °F 48.0 °F 56% 29.81 in 10.0 mi SE 11.5 mph - N/A   Clear